Regional Weather Roundup
Issued by NWS Huntsville, AL

Home | Current Version | Previous Version | Text Only | Print | Product List | Glossary On
Versions: 1 2 3 4 5 6 7 8 9 10 11 12 13 14 15 16 17 18 19 20 21 22 23 24 25 26 27 28 29 30 31 32 33 34 35 36 37 38 39 40 41 42 43 44 45 46 47 48 49 50
000
ASUS44 KHUN 260510
RWRHUN

WEATHER ROUNDUP FOR THE TENNESSEE VALLEY
NATIONAL WEATHER SERVICE HUNTSVILLE AL
1100 PM CST SUN JAN 25 2015

ALZ001>004-260600-
NORTHWEST ALABAMA

CITY           SKY/WX    TMP DP  RH WIND       PRES   REMARKS
SHOALS AIRPORT CLOUDY    45  40  82 NW12G25   29.82R
SHOALS TVA RES   N/A     45 N/A N/A MISG        N/A
$$

ALZ005>007-016-260600-
NORTH CENTRAL ALABAMA

CITY           SKY/WX    TMP DP  RH WIND       PRES   REMARKS
DECATUR AP     CLOUDY    44  40  85 W12       29.80R
HUNTSVILLE AP  CLOUDY    45  40  82 W9        29.78S
MERIDIANVILLE  CLOUDY    43  37  81 W6        29.77S
REDSTONE ARSN  CLOUDY    43  40  91 W8        29.78R
VINEMONT AP    CLOUDY    42  38  86 W5        29.80S
$$

ALZ008>010-260600-
NORTHEAST ALABAMA

CITY           SKY/WX    TMP DP  RH WIND       PRES   REMARKS
ALBERTVILLE    CLOUDY    43  41  93 W8        29.77S
FORT PAYNE     CLOUDY    45  36  70 W8        29.75R
SCOTTSBORO AP  CLOUDY    46  39  76 W8        29.77R
VALLEY HEAD      N/A     46 N/A N/A MISG        N/A
$$

TNZ076-096-097-260600-
SOUTHEASTERN MIDDLE TENNESSEE

CITY           SKY/WX    TMP DP  RH WIND       PRES   REMARKS
TULLAHOMA      CLOUDY    43  39  87 W13       29.73S
WINCHESTER     CLOUDY    43  39  87 W7        29.75R
$$

...SURROUNDING SITES...

CITY           SKY/WX    TMP DP  RH WIND       PRES   REMARKS
ATLANTA        PTCLDY    43  41  93 SW3       29.75R
ANNISTON       CLOUDY    44  42  93 W8        29.79S
BIRMINGHAM     CLOUDY    45  41  86 W9        29.83S
CHATTANOOGA    LGT RAIN  47  43  86 CALM      29.72S
CORINTH        CLOUDY    45  37  76 W10G16    29.85R
DALTON         CLOUDY    45  43  93 CALM      29.73R
GADSDEN        CLOUDY    45  37  76 W7        29.79S
GOLDEN TRNGL   PTCLDY    46  37  71 NW10G16   29.87R
HALEYVILLE       N/A     42  40  93 NW10      29.83S
JACKSON TN     CLOUDY    42  37  82 NW13      29.85R
LEWISBURG      CLOUDY    45  40  82 W10       29.74R
MEMPHIS        CLOUDY    44  35  70 NW15      29.92R
NASHVILLE      LGT RAIN  44  41  89 W9        29.73R
OXFORD MS      CLOUDY    41  32  70 NW16G35   29.93R
ROME           MOCLDY    45  42  89 SW6       29.73S
SAVANNAH       CLOUDY    43  37  81 NW8       29.83R
TUPELO         CLOUDY    44  36  73 NW7       29.88R
TUSCALOOSA     CLOUDY    45  43  93 CALM      29.86R
$$

...GULF COAST WEATHER...

CITY           SKY/WX    TMP DP  RH WIND       PRES   REMARKS
GULFPORT       CLEAR     54  41  61 W7        29.93R
PASCAGOULA     CLEAR     52  40  63 W6        29.92R
MOBILE         CLEAR     48  39  71 W6        29.91R
GULF SHORES    CLEAR     55  47  75 W14G22    29.89S
PENSACOLA      CLEAR     56  45  66 W7        29.88R
DESTIN         PTCLDY    61  49  64 W9G25     29.87R
PANAMA CITY    CLEAR     62  51  68 W17G28    29.87S
APPALACHICOLA  RAIN      61  52  72 W18G38    29.88S
$$




USA.gov is the U.S. government's official web portal to all federal, state and local government web resources and services.